CW2312 Weather Reports


time (UTC)temp
F
wind
direction
speed
knots
gust
knots
rain 1hr
in
rain 24hr
in
rain mn
in
humidity
%
barometer
mb
20260903010910 86 0 0.0 0.0 0.00 0.00 0.00 70 1016.1
20260903010010 86 0 0.0 0.0 0.00 0.00 0.00 69 1016.0
20260903005109 87 0 0.0 0.0 0.00 0.00 0.00 69 1016.1
20260903004210 87 0 0.0 0.0 0.00 0.00 0.00 68 1016.0
20260903003309 88 0 0.0 0.0 0.00 0.00 0.00 67 1016.0
20260903002409 88 0 0.0 0.0 0.00 0.00 0.00 66 1016.0
20260903001509 89 0 0.0 0.0 0.00 0.00 0.00 65 1015.9
20260902235709 90 250 0.9 5.2 0.00 0.00 0.00 64 1015.9
20260902234809 90 218 0.0 4.3 0.00 0.00 0.00 63 1015.9
20260902233909 90 239 0.9 4.3 0.00 0.00 0.00 62 1016.0
20260902233009 91 242 0.9 6.1 0.00 0.00 0.00 61 1015.9
20260902232109 91 239 0.9 6.1 0.00 0.00 0.00 61 1015.9
20260902231209 92 242 2.6 9.6 0.00 0.00 0.00 60 1015.9
20260902230309 92 243 2.6 9.6 0.00 0.00 0.00 59 1015.9
20260902225409 92 244 2.6 7.8 0.00 0.00 0.00 59 1015.9
20260902224510 92 246 3.5 8.7 0.00 0.00 0.00 58 1016.1
20260902223608 93 240 2.6 8.7 0.00 0.00 0.00 58 1016.0
20260902220908 94 247 3.5 8.7 0.00 0.00 0.00 57 1016.1
20260902220008 94 249 3.5 9.6 0.00 0.00 0.00 57 1016.2
20260902215109 94 229 2.6 8.7 0.00 0.00 0.00 56 1016.1
20260902214208 94 258 1.7 7.0 0.00 0.00 0.00 56 1016.2
20260902213310 95 250 2.6 10.4 0.00 0.00 0.00 55 1016.1
20260902212408 95 274 3.5 8.7 0.00 0.00 0.00 55 1016.3
20260902211508 95 273 3.5 8.7 0.00 0.00 0.00 55 1016.3
20260902210608 95 265 3.5 10.4 0.00 0.00 0.00 55 1016.4
20260902205709 96 272 2.6 9.6 0.00 0.00 0.00 55 1016.4
20260902203908 95 245 1.7 9.6 0.00 0.00 0.00 56 1016.5
20260902203008 95 266 4.3 8.7 0.00 0.00 0.00 55 1016.6
20260902202108 96 264 3.5 8.7 0.00 0.00 0.00 54 1016.7
20260902201209 96 265 2.6 7.8 0.00 0.00 0.00 52 1016.7
20260902200308 96 277 3.5 9.6 0.00 0.00 0.00 54 1016.7
20260902195408 96 258 3.5 8.7 0.00 0.00 0.00 54 1016.9
20260902194508 96 278 3.5 8.7 0.00 0.00 0.00 53 1016.9
20260902193608 96 277 3.5 10.4 0.00 0.00 0.00 54 1017.0
20260902192708 96 238 1.7 7.0 0.00 0.00 0.00 54 1017.1
20260902191810 95 222 3.5 7.0 0.00 0.00 0.00 53 1017.1
20260902190909 95 249 2.6 8.7 0.00 0.00 0.00 53 1017.2
20260902190008 95 256 2.6 10.4 0.00 0.00 0.00 53 1017.4
20260902184208 95 265 3.5 9.6 0.00 0.00 0.00 54 1017.5
20260902183308 94 248 1.7 7.0 0.00 0.00 0.00 56 1017.6
20260902182408 94 275 2.6 11.3 0.00 0.00 0.00 55 1017.6
20260902181508 95 230 2.6 7.0 0.00 0.00 0.00 54 1017.7
20260902175708 95 268 2.6 7.8 0.00 0.00 0.00 56 1017.9
20260902174809 95 261 3.5 9.6 0.00 0.00 0.00 56 1017.9
20260902173008 94 287 3.5 10.4 0.00 0.00 0.00 57 1018.3
20260902172108 94 247 2.6 7.0 0.00 0.00 0.00 57 1018.3
20260902171208 94 253 1.7 8.7 0.00 0.00 0.00 58 1018.5
20260902170308 93 273 3.5 9.6 0.00 0.00 0.00 59 1018.4
20260902165408 93 279 3.5 10.4 0.00 0.00 0.00 59 1018.5
20260902164508 93 251 2.6 7.8 0.00 0.00 0.00 59 1018.5
20260902163608 93 249 2.6 8.7 0.00 0.00 0.00 61 1018.6
20260902162709 92 237 1.7 8.7 0.00 0.00 0.00 64 1018.5
20260902160009 91 251 1.7 8.7 0.00 0.00 0.00 64 1018.7
20260902155108 91 247 1.7 7.8 0.00 0.00 0.00 66 1018.7
20260902154209 90 242 0.9 6.1 0.00 0.00 0.00 66 1018.8
20260902153308 89 243 1.7 7.0 0.00 0.00 0.00 68 1018.7
20260902152409 89 250 1.7 6.1 0.00 0.00 0.00 68 1018.8
20260902150609 88 227 0.9 3.5 0.00 0.00 0.00 69 1018.8
20260902145709 87 237 0.9 3.5 0.00 0.00 0.00 70 1019.0
20260902144808 87 247 0.9 7.0 0.00 0.00 0.00 70 1018.9
20260902143908 86 250 0.9 5.2 0.00 0.00 0.00 71 1018.9
20260902143007 86 282 0.9 6.1 0.00 0.00 0.00 71 1018.9
20260902142108 86 281 0.9 6.1 0.00 0.00 0.00 72 1018.9
20260902141207 85 280 0.9 4.3 0.00 0.00 0.00 73 1018.8
20260902140308 84 228 0.0 3.5 0.00 0.00 0.00 73 1018.8
20260902134507 84 269 0.0 0.9 0.00 0.00 0.00 75 1018.8
20260902133609 83 236 0.0 3.5 0.00 0.00 0.00 76 1018.8
20260902132708 82 262 0.9 6.1 0.00 0.00 0.00 76 1018.9
20260902131808 82 274 0.0 3.5 0.00 0.00 0.00 78 1018.9
20260902125107 78 225 0.0 3.5 0.00 0.00 0.00 86 1018.8
20260902124207 77 217 0.0 3.5 0.00 0.00 0.00 89 1018.6
20260902123309 76 0 0.0 0.0 0.00 0.00 0.00 91 1018.8
20260902122407 75 203 0.0 3.5 0.00 0.00 0.00 91 1018.7
20260902121507 75 0 0.0 0.0 0.00 0.00 0.00 92 1018.6
20260902120607 74 0 0.0 0.0 0.00 0.00 0.00 92 1018.6
20260902115707 73 0 0.0 0.0 0.00 0.00 0.00 91 1018.4
20260902114807 73 0 0.0 0.0 0.00 0.00 0.00 91 1018.3
20260902113907 73 0 0.0 0.0 0.00 0.00 0.00 91 1018.2
20260902113007 73 0 0.0 0.0 0.00 0.00 0.00 91 1018.2
20260902112107 73 0 0.0 0.0 0.00 0.00 0.00 91 1018.2
20260902110307 73 0 0.0 0.0 0.00 0.00 0.00 91 1018.0
20260902105408 73 0 0.0 0.0 0.00 0.00 0.00 91 1017.8
20260902104507 73 0 0.0 0.0 0.00 0.00 0.00 90 1017.9
20260902103608 73 0 0.0 0.0 0.00 0.00 0.00 90 1017.9
20260902102707 73 0 0.0 0.0 0.00 0.00 0.00 90 1017.9
20260902101808 73 0 0.0 0.0 0.00 0.00 0.00 90 1017.9
20260902100007 73 0 0.0 0.0 0.00 0.00 0.00 90 1017.9
20260902095107 74 0 0.0 0.0 0.00 0.00 0.00 90 1017.9
20260902092407 74 0 0.0 0.0 0.00 0.00 0.00 90 1017.8
20260902091507 74 0 0.0 0.0 0.00 0.00 0.00 89 1017.6
20260902090607 74 0 0.0 0.0 0.00 0.00 0.00 89 1017.7
20260902085707 74 0 0.0 0.0 0.00 0.00 0.00 89 1017.5
20260902084807 74 0 0.0 0.0 0.00 0.00 0.00 89 1017.5
20260902083907 74 0 0.0 0.0 0.00 0.00 0.00 89 1017.4
20260902083007 74 0 0.0 0.0 0.00 0.00 0.00 89 1017.3
20260902082108 74 0 0.0 0.0 0.00 0.00 0.00 88 1017.4
20260902081207 74 0 0.0 0.0 0.00 0.00 0.00 88 1017.3
20260902080307 74 0 0.0 0.0 0.00 0.00 0.00 88 1017.4
20260902074507 74 0 0.0 0.0 0.00 0.00 0.00 87 1017.2
20260902073607 75 0 0.0 0.0 0.00 0.00 0.00 87 1017.1
20260902072707 75 0 0.0 0.0 0.00 0.00 0.00 87 1017.2
20260902071807 75 0 0.0 0.0 0.00 0.00 0.00 87 1017.2
20260902070907 75 0 0.0 0.0 0.00 0.00 0.00 87 1017.2
20260902070007 75 0 0.0 0.0 0.00 0.00 0.00 87 1017.1
20260902064208 76 0 0.0 0.0 0.00 0.00 0.00 87 1017.3
20260902063307 76 0 0.0 0.0 0.00 0.00 0.00 87 1017.4
20260902062407 76 0 0.0 0.0 0.00 0.00 0.00 86 1017.3
20260902061507 76 0 0.0 0.0 0.00 0.00 0.00 86 1017.4
20260902060607 76 0 0.0 0.0 0.00 0.00 0.00 86 1017.4
20260902055708 76 0 0.0 0.0 0.00 0.00 0.00 86 1017.5
20260902054807 77 0 0.0 0.0 0.00 0.00 0.00 85 1017.5
20260902053907 77 0 0.0 0.0 0.00 0.00 0.00 85 1017.5
20260902052108 77 0 0.0 0.0 0.00 0.00 0.00 85 1017.4
20260902051208 77 0 0.0 0.0 0.00 0.00 0.00 84 1017.3
20260902050307 77 0 0.0 0.0 0.00 0.00 0.00 84 1017.3
20260902045407 78 0 0.0 0.0 0.00 0.00 0.00 84 1017.3
20260902044507 78 0 0.0 0.0 0.00 0.00 0.00 83 1017.3
20260902043607 78 0 0.0 0.0 0.00 0.00 0.00 83 1017.4
20260902042707 78 0 0.0 0.0 0.00 0.00 0.00 82 1017.4
20260902041808 78 0 0.0 0.0 0.00 0.00 0.00 82 1017.4
20260902040907 79 0 0.0 0.0 0.00 0.00 0.00 81 1017.5
20260902040007 79 0 0.0 0.0 0.00 0.00 0.00 81 1017.4
20260902035108 79 0 0.0 0.0 0.00 0.00 0.00 81 1017.3
20260902034206 80 0 0.0 0.0 0.00 0.00 0.00 81 1017.4
20260902033306 80 0 0.0 0.0 0.00 0.00 0.00 81 1017.3
20260902032407 80 0 0.0 0.0 0.00 0.00 0.00 81 1017.4
20260902031506 80 0 0.0 0.0 0.00 0.00 0.00 80 1017.4
20260902030606 80 0 0.0 0.0 0.00 0.00 0.00 80 1017.5
20260902025707 81 0 0.0 0.0 0.00 0.00 0.00 79 1017.4
20260902024806 81 0 0.0 0.0 0.00 0.00 0.00 79 1017.4
20260902023907 81 0 0.0 0.0 0.00 0.00 0.00 79 1017.4
20260902023006 82 0 0.0 0.0 0.00 0.00 0.00 78 1017.3
20260902022106 82 0 0.0 0.0 0.00 0.00 0.00 76 1017.4
20260902021206 82 0 0.0 0.0 0.00 0.00 0.00 75 1017.2
20260902020306 83 0 0.0 0.0 0.00 0.00 0.00 74 1017.1
20260902015406 83 0 0.0 0.0 0.00 0.00 0.00 74 1017.1
20260902013606 84 0 0.0 0.0 0.00 0.00 0.00 72 1017.0
20260902012706 85 0 0.0 0.0 0.00 0.00 0.00 71 1017.0